Overview Statistics Trail Chart Weather Telemetry Raw packets
 

This is the latest recevied weather packets stored in our database for station/object W0CHP-13. If no packets are shown the sender has not sent any weather packets the latest 10 day(s).

<< 54 55 56 57 58 >>
Time Temp. Humidity Pressure Rain* Wind** Luminosity Snow
1787865196 27.22° C 43% 1015.8 hPa 0 mm - 95 W/m² -
1787864595 27.78° C 40% 1015.8 hPa 0 mm - 141 W/m² -
1787863996 28.33° C 42% 1015.8 hPa 0 mm - 347 W/m² -
1787863398 28.33° C 41% 1015.8 hPa 0 mm - 548 W/m² -
1787862797 28.33° C 40% 1016 hPa 0 mm - 585 W/m² -
1787862195 28.33° C 40% 1016.1 hPa 0 mm - 573 W/m² -
1787861598 28.33° C 43% 1016.1 hPa 0 mm - 580 W/m² -
1787860996 27.78° C 42% 1016.1 hPa 0 mm - 615 W/m² -
1787860398 28.33° C 41% 1016.1 hPa 0 mm - 148 W/m² -
1787859795 28.33° C 40% 1016.1 hPa 0 mm - 172 W/m² -
1787859196 28.33° C 41% 1016.4 hPa 0 mm - 667 W/m² -
1787858595 27.78° C 43% 1016.4 hPa 0 mm - 653 W/m² -
1787857996 28.33° C 43% 1016.5 hPa 0 mm - 667 W/m² -
1787857395 27.78° C 43% 1016.5 hPa 0 mm - 677 W/m² -
1787856799 27.78° C 43% 1016.5 hPa 0 mm - 681 W/m² -
1787856195 27.78° C 43% 1016.5 hPa 0 mm - 462 W/m² -
1787855597 27.22° C 46% 1016.5 hPa 0 mm - 785 W/m² -
1787854996 26.67° C 46% 1016.6 hPa 0 mm - 704 W/m² -
1787854397 27.22° C 45% 1016.8 hPa 0 mm - 527 W/m² -
1787853796 27.22° C 45% 1016.6 hPa 0 mm - 723 W/m² -
1787853198 26.67° C 44% 1016.7 hPa 0 mm - 750 W/m² -
1787852597 26.11° C 47% 1016.8 hPa 0 mm - 704 W/m² -
1787851995 26.11° C 49% 1016.8 hPa 0 mm - 691 W/m² -
1787851397 26.11° C 48% 1016.8 hPa 0 mm - 687 W/m² -
1787850796 26.11° C 48% 1016.8 hPa 0 mm - 670 W/m² -

* Rain latest hour (hover to see other rain measurements)
** Current wind speed in m/s (hover to see current wind gust speed)